Date,TemperatureHighF,TemperatureAvgF,TemperatureLowF,DewpointHighF,DewpointAvgF,DewpointLowF,HumidityHigh,HumidityAvg,HumidityLow,PressureMaxIn,PressureMinIn,WindSpeedMaxMPH,WindSpeedAvgMPH,GustSpeedMaxMPH,PrecipitationSumIn
2014-1-1,21.9,17.5,14.2,14.7,10.9,7.8,89,75,62,30.38,30.22,8,2,9,0.00
2014-1-2,14.3,10.7,6.2,11.4,7.9,3.7,89,88,86,30.27,29.92,12,1,12,0.00
2014-1-3,7.5,2.0,-7.0,3.5,-2.5,-10.6,89,81,73,30.40,29.94,8,2,13,0.00
2014-1-4,35.4,20.8,-2.1,13.2,6.8,-6.3,84,57,31,30.33,30.01,14,4,14,0.00
2014-1-5,43.6,30.5,20.4,41.2,21.4,10.3,94,69,55,30.16,29.46,13,1,16,0.04
2014-1-6,45.8,27.4,3.2,43.7,20.8,-5.2,95,76,56,29.79,29.27,25,8,25,0.03
2014-1-7,5.9,2.6,-1.9,-2.7,-7.3,-11.1,73,63,51,30.24,29.79,25,8,25,0.00
2014-1-8,20.1,13.4,5.8,12.4,4.4,-3.0,75,67,55,30.43,30.24,13,3,13,0.00
2014-1-9,26.7,20.6,14.7,18.7,13.2,10.3,86,73,55,30.64,30.39,8,2,8,0.00
2014-1-10,39.9,33.3,26.4,35.9,29.6,18.5,93,86,71,30.39,29.99,8,2,9,0.01
2014-1-11,50.7,44.3,37.3,47.6,41.4,32.8,97,90,72,29.99,29.27,20,4,23,0.13
2014-1-12,37.0,34.5,31.9,33.0,29.6,26.8,88,82,77,29.98,29.47,14,4,14,0.00
2014-1-13,50.7,42.5,31.8,37.5,31.5,26.7,82,65,48,29.97,29.69,12,3,13,0.00
2014-1-14,44.4,38.5,27.4,40.5,35.2,25.1,96,88,78,29.85,29.66,7,1,8,0.01
2014-1-15,38.9,32.2,28.3,32.8,27.7,20.5,95,84,63,29.99,29.79,12,1,13,0.00
2014-1-16,33.6,27.8,19.0,21.4,19.1,15.7,90,70,57,29.98,29.83,9,1,11,0.00
2014-1-17,40.4,32.9,28.0,26.8,23.3,19.6,89,68,53,29.86,29.79,12,2,13,0.00
2014-1-18,31.4,26.1,13.6,29.9,23.4,9.8,94,89,79,29.85,29.79,11,2,12,0.00
2014-1-19,32.0,23.9,14.1,24.8,17.4,10.9,89,76,63,29.84,29.46,23,4,23,0.00
2014-1-20,33.0,23.6,10.4,29.5,18.9,4.4,93,82,74,30.00,29.50,15,2,18,0.00
2014-1-21,10.4,5.4,2.0,5.3,0.5,-3.4,85,79,73,30.09,29.99,6,1,8,0.00
2014-1-22,7.8,1.2,-4.4,-0.3,-3.7,-7.8,88,80,66,30.06,29.97,11,1,11,0.00
2014-1-23,14.1,7.3,1.9,8.3,2.5,-2.6,86,80,65,30.30,30.00,10,2,15,0.00
2014-1-24,17.0,9.6,1.0,4.0,0.4,-4.0,84,67,50,30.33,29.81,17,5,18,0.00
2014-1-25,26.3,20.8,10.2,21.2,14.9,0.9,91,78,47,29.72,29.24,18,6,18,0.00
2014-1-26,25.1,13.2,6.3,20.6,6.4,-1.9,86,74,58,29.76,29.48,12,4,14,0.00
2014-1-27,36.1,18.3,5.3,32.8,10.9,-1.5,92,73,50,30.11,29.29,23,5,23,0.00
2014-1-28,12.8,5.4,-1.1,-0.5,-5.8,-9.4,75,60,47,30.31,30.11,13,4,16,0.00
2014-1-29,16.3,5.9,1.2,1.3,-6.3,-11.5,62,56,49,30.17,30.01,12,4,14,0.00
2014-1-30,29.8,23.2,4.9,10.1,7.3,-1.3,77,51,40,30.31,29.88,20,5,20,0.00
2014-1-31,35.9,31.4,24.5,24.8,19.3,8.1,81,61,46,30.18,29.91,11,2,13,0.00
2014-2-1,41.2,33.7,25.6,32.0,26.5,22.0,89,75,56,30.22,29.85,14,2,15,0.04
2014-2-2,40.5,32.7,27.5,36.7,29.6,23.5,94,89,63,30.20,29.84,10,1,10,0.00
2014-2-3,27.4,22.5,14.7,23.8,17.8,11.5,90,82,72,30.38,30.18,6,1,7,0.00
2014-2-4,26.7,20.8,11.7,19.7,14.2,8.8,91,76,60,30.48,30.21,7,1,7,0.00
2014-2-5,24.8,21.2,15.7,22.9,19.3,13.7,94,92,87,30.25,29.70,12,2,13,0.00
2014-2-6,20.9,14.0,6.5,13.7,9.6,3.9,92,83,66,30.31,30.18,7,1,9,0.00
2014-2-7,23.9,15.4,7.8,13.4,4.5,-2.4,89,63,41,30.27,30.17,11,2,11,0.00
2014-2-8,20.0,9.6,-3.9,9.6,1.6,-10.1,88,70,54,30.32,30.18,4,1,6,0.00
2014-2-9,21.6,13.8,1.6,18.6,10.4,-1.1,92,86,73,30.19,29.92,8,1,8,0.00
2014-2-10,21.9,15.9,10.6,13.3,9.3,4.3,88,75,60,30.30,30.05,8,2,12,0.00
2014-2-11,19.1,11.3,2.1,9.1,5.0,-2.4,87,76,57,30.50,30.30,11,1,11,0.00
2014-2-12,26.2,11.0,-8.4,9.9,1.1,-11.9,89,66,40,30.50,30.17,9,2,11,0.00
2014-2-13,24.4,20.2,14.6,21.6,15.4,7.2,94,82,67,30.18,29.46,10,1,11,0.00
2014-2-14,32.4,26.7,22.2,26.2,22.7,20.5,95,85,66,29.73,29.40,13,3,14,0.00
2014-2-15,31.3,25.1,15.1,24.8,20.1,11.1,88,82,64,29.94,29.73,12,1,13,0.00
2014-2-16,19.2,14.5,10.1,12.9,9.5,5.3,86,81,71,30.24,29.93,8,2,10,0.00
2014-2-17,26.2,13.8,-0.4,10.0,5.5,-3.9,88,70,47,30.44,29.96,14,2,15,0.00
2014-2-18,31.8,27.1,21.2,26.7,19.9,8.5,90,75,46,30.05,29.82,18,4,23,0.00
2014-2-19,44.8,34.3,24.2,36.2,27.3,19.5,89,76,62,30.08,29.64,11,3,13,0.03
2014-2-20,43.3,35.0,25.6,34.3,30.1,23.5,96,83,55,30.17,29.80,12,2,13,0.54
2014-2-21,46.4,41.3,35.7,40.9,33.3,22.0,93,74,51,29.80,29.56,18,4,18,0.18
2014-2-22,44.9,39.9,35.5,31.5,22.7,11.4,76,51,27,29.95,29.78,24,7,28,0.00
2014-2-23,43.3,37.0,26.5,31.6,23.6,13.6,77,59,39,29.97,29.87,11,3,12,0.00
2014-2-24,26.7,21.7,16.6,18.1,13.4,8.9,87,70,59,30.07,29.90,17,4,17,0.00
2014-2-25,21.6,18.1,15.6,13.4,10.6,8.4,84,72,61,30.06,29.87,11,3,13,0.00
2014-2-26,19.0,12.7,6.6,13.6,1.8,-6.1,86,62,41,29.95,29.73,18,4,21,0.00
2014-2-27,21.1,12.0,3.9,14.2,2.4,-6.9,86,65,55,30.10,29.51,19,5,20,0.00
2014-2-28,15.9,8.8,1.1,3.7,-1.0,-5.0,79,64,47,30.36,30.09,9,2,11,0.00
2014-3-1,42.4,26.8,13.2,21.5,9.3,-0.1,57,48,35,30.24,30.01,11,3,11,0.00
2014-3-2,20.3,15.3,8.9,11.8,7.6,0.5,79,71,65,30.18,30.11,11,2,11,0.00
2014-3-3,14.3,8.1,1.0,6.5,1.9,-4.1,84,75,60,30.38,30.17,12,2,12,0.00
2014-3-4,24.3,11.2,-3.7,13.1,3.4,-7.2,88,73,36,30.38,30.22,10,1,10,0.00
2014-3-5,22.3,15.6,2.8,17.1,11.2,-1.1,89,83,68,30.57,30.21,10,1,10,0.00
2014-3-6,26.0,13.1,-5.3,11.9,4.0,-8.5,90,69,49,30.62,30.30,8,2,11,0.00
2014-3-7,46.2,31.4,19.9,29.3,19.9,6.6,82,63,47,30.29,29.90,10,2,10,0.01
2014-3-8,41.4,34.1,28.8,33.0,28.9,24.7,95,82,65,30.01,29.84,8,1,9,0.00
2014-3-9,33.4,27.7,20.5,26.5,18.6,15.8,91,70,50,30.13,29.79,9,2,10,0.00
2014-3-10,48.9,39.4,33.1,38.6,30.5,18.3,84,71,54,29.82,29.51,15,2,18,0.00
2014-3-11,52.6,45.4,38.6,38.3,35.6,32.9,94,69,52,29.74,29.53,12,2,12,0.00
2014-3-12,39.4,26.9,12.0,38.4,25.5,9.9,96,94,91,29.71,29.28,12,3,20,0.00
2014-3-13,17.6,12.0,5.8,10.2,6.6,3.3,92,79,59,30.07,29.66,14,4,17,0.00
2014-3-14,53.1,34.8,16.0,31.6,20.9,4.8,74,58,40,30.05,29.64,17,4,18,0.00
2014-3-15,40.9,34.4,23.7,34.4,26.6,14.3,83,73,63,30.15,29.71,20,5,21,0.00
2014-3-16,23.6,18.0,10.4,15.4,9.5,4.7,87,69,56,30.33,30.14,14,3,15,0.00
2014-3-17,25.7,17.1,8.5,14.2,9.0,5.1,90,72,44,30.22,30.04,8,1,8,0.00
2014-3-18,46.7,31.4,14.1,26.1,17.6,9.0,86,59,36,30.16,30.08,11,2,11,0.00
2014-3-19,45.9,38.8,34.1,36.9,27.0,12.4,93,65,34,30.14,29.70,21,6,21,0.07
2014-3-20,41.1,36.5,32.3,38.0,31.4,25.5,94,82,73,29.92,29.68,16,5,19,0.00
2014-3-21,38.7,32.3,27.6,26.5,23.6,20.2,77,70,57,30.07,29.92,12,3,18,0.00
2014-3-22,42.6,36.2,31.0,38.6,29.4,24.6,88,76,59,30.07,29.59,16,5,21,0.00
2014-3-23,33.1,22.6,15.2,27.7,15.9,7.0,90,75,62,30.25,30.04,12,3,14,0.00
2014-3-24,26.0,19.7,10.4,15.2,11.7,7.5,92,72,51,30.26,30.11,12,2,12,0.00
2014-3-25,36.9,26.2,14.3,21.9,15.3,8.5,85,66,32,30.11,29.85,13,3,14,0.00
2014-3-26,25.8,20.0,15.7,22.2,12.8,8.9,90,73,58,30.28,29.96,14,3,19,0.00
2014-3-27,42.8,25.6,12.6,22.7,14.2,8.7,86,64,37,30.33,30.05,11,2,11,0.00
2014-3-28,59.7,48.3,37.2,48.1,40.4,22.1,89,75,48,30.19,29.74,19,5,20,0.03
2014-3-29,39.6,35.8,32.4,35.5,33.0,31.5,97,90,83,30.24,29.88,10,1,11,0.74
2014-3-30,34.2,31.9,29.6,32.9,30.8,28.1,97,96,91,30.05,29.85,15,3,15,0.04
2014-3-31,42.0,36.4,25.9,34.8,31.2,24.7,95,82,64,30.20,30.05,10,2,12,0.47
2014-4-1,56.9,48.0,25.8,40.7,34.2,24.6,95,60,45,30.22,29.84,13,2,13,0.00
2014-4-2,52.7,44.1,36.3,37.5,33.0,28.7,87,66,47,30.22,29.94,13,2,15,0.00
2014-4-3,42.9,35.6,26.6,33.2,28.7,24.1,91,76,60,30.24,30.06,6,1,8,0.00
2014-4-4,48.1,41.0,33.0,44.0,38.0,28.7,94,89,81,30.07,29.60,15,3,17,0.05
2014-4-5,44.2,35.4,32.6,42.0,28.2,26.0,92,75,68,30.15,29.66,18,5,21,0.01
2014-4-6,51.4,40.0,27.5,33.3,27.4,23.2,85,62,37,30.23,30.12,10,1,10,0.00
2014-4-7,48.3,39.6,32.7,40.9,31.6,24.9,94,75,42,30.15,29.52,13,3,16,0.67
2014-4-8,53.0,44.7,36.1,48.1,41.0,34.2,96,87,79,29.73,29.30,14,3,15,0.15
2014-4-9,46.2,37.7,32.6,35.9,30.6,21.7,97,77,40,30.02,29.71,10,1,16,0.00
2014-4-10,70.2,53.2,29.1,46.2,32.5,24.0,86,49,24,30.03,29.74,21,6,25,0.00
2014-4-11,59.1,51.5,40.0,50.7,44.5,37.6,93,78,56,30.07,29.86,9,1,13,0.01
2014-4-12,67.5,51.2,35.0,45.5,39.6,33.0,97,70,31,30.21,30.07,8,1,9,0.00
2014-4-13,82.8,65.7,46.8,56.0,49.2,42.2,87,59,30,30.07,29.79,16,4,18,0.00
2014-4-14,79.0,67.7,55.1,58.1,54.7,50.3,92,65,39,29.85,29.59,20,5,24,0.04
2014-4-15,60.7,39.8,25.5,57.6,37.0,19.0,96,89,73,30.13,29.51,17,3,20,0.13
2014-4-16,37.1,29.1,23.0,23.8,19.0,13.8,85,66,46,30.58,30.12,12,2,16,0.01
2014-4-17,54.3,39.9,24.7,31.1,24.5,20.1,86,57,33,30.63,30.44,13,3,13,0.00
2014-4-18,62.8,48.6,37.0,41.8,36.2,30.8,85,63,39,30.46,30.17,11,3,12,0.00
2014-4-19,49.7,42.4,32.9,41.4,33.4,27.5,87,71,48,30.45,30.27,11,2,11,0.00
2014-4-20,67.6,49.6,28.1,35.8,30.2,25.5,91,54,23,30.47,30.18,10,2,10,0.00
2014-4-21,76.0,63.0,51.8,45.9,38.0,30.3,70,42,20,30.19,29.77,11,2,12,0.00
2014-4-22,62.7,55.3,43.4,56.8,48.0,37.6,91,77,58,29.78,29.54,11,2,12,0.03
2014-4-23,43.2,38.8,36.7,38.2,33.9,23.6,95,83,59,30.02,29.66,11,2,12,0.06
2014-4-24,50.7,41.2,31.9,27.9,24.8,21.2,74,54,32,30.13,30.01,14,2,18,0.00
2014-4-25,65.2,49.5,31.6,46.3,31.8,23.9,94,54,28,30.07,29.65,14,3,17,0.16
2014-4-26,48.9,44.9,41.1,46.3,40.4,36.0,94,84,76,30.00,29.69,12,2,14,0.06
2014-4-27,49.7,42.9,38.1,38.2,36.1,34.5,88,78,58,30.17,30.00,11,2,13,0.00
2014-4-28,55.5,49.6,29.6,39.1,36.2,28.1,95,61,46,30.23,30.02,13,2,14,0.00
2014-4-29,53.6,47.7,41.6,44.1,41.4,35.8,90,79,60,30.20,30.01,22,6,22,0.03
2014-4-30,52.8,48.4,44.1,51.6,45.8,40.6,97,91,83,30.19,29.82,15,4,21,0.60
2014-5-1,62.1,54.3,47.7,56.0,48.2,37.9,97,81,53,29.82,29.74,11,2,11,0.02
2014-5-2,57.1,50.8,47.3,45.0,42.1,39.0,84,72,56,29.86,29.73,14,3,16,0.00
2014-5-3,58.5,52.3,46.6,47.7,44.2,42.3,92,74,59,29.84,29.66,14,3,16,0.01
2014-5-4,55.1,49.0,43.2,42.6,37.5,32.6,83,66,44,29.97,29.70,16,4,19,0.00
2014-5-5,57.7,49.2,39.3,38.4,35.0,24.7,87,61,31,30.05,29.95,17,2,17,0.00
2014-5-6,57.1,50.1,40.3,40.3,36.5,33.2,81,61,43,30.16,29.95,12,2,12,0.00
2014-5-7,63.1,50.5,33.7,42.1,37.1,31.2,93,63,38,30.27,30.13,10,1,10,0.00
2014-5-8,73.2,61.1,50.3,59.0,50.9,40.0,88,70,59,30.14,30.03,7,1,9,0.01
2014-5-9,86.0,70.8,56.9,66.2,57.9,48.0,95,68,30,30.07,29.82,14,2,14,0.44
2014-5-10,73.8,65.7,54.9,62.2,52.5,31.1,95,65,30,29.98,29.82,15,3,15,0.08
2014-5-11,73.1,61.1,47.8,46.0,41.9,34.5,81,52,29,30.14,29.97,10,2,10,0.00
2014-5-12,80.1,66.4,50.7,63.5,55.0,44.5,85,68,49,30.14,30.04,6,0,7,0.00
2014-5-13,84.8,70.6,59.5,68.6,63.0,53.9,95,79,53,30.13,29.99,15,2,15,0.39
2014-5-14,82.5,71.1,63.4,69.1,63.9,61.0,96,80,49,30.16,30.03,13,2,16,1.03
2014-5-15,76.5,70.1,65.0,65.9,62.8,59.2,94,79,59,30.10,29.89,18,5,20,0.38
2014-5-16,64.9,50.9,43.3,63.1,47.8,39.3,97,90,77,30.01,29.88,10,1,13,1.93
2014-5-17,54.7,47.2,38.9,44.1,40.1,35.7,94,77,59,30.20,29.98,7,1,10,0.00
2014-5-18,58.1,51.0,43.2,43.9,40.4,34.9,94,69,43,30.29,30.20,10,1,12,0.00
2014-5-19,66.3,53.1,40.3,51.9,42.7,37.2,92,69,45,30.28,30.18,8,1,10,0.01
2014-5-20,71.8,60.0,46.8,53.2,46.5,41.4,86,63,38,30.22,30.03,8,1,8,0.00
2014-5-21,68.3,61.7,56.7,63.3,56.6,50.6,96,84,69,30.03,29.85,8,1,8,0.03
2014-5-22,74.8,63.6,55.4,64.6,57.3,49.3,98,82,56,29.94,29.80,11,2,13,0.00
2014-5-23,56.8,54.5,52.1,51.9,51.1,49.2,94,88,81,30.08,29.91,5,1,8,0.35
2014-5-24,56.9,53.7,51.9,53.1,51.5,50.2,95,92,87,30.13,30.07,5,1,5,0.00
2014-5-25,75.8,70.6,59.5,53.4,49.2,46.2,76,47,37,30.17,30.08,11,2,11,0.00
2014-5-26,81.0,71.1,57.5,58.8,52.1,44.2,76,52,40,30.09,29.94,11,2,12,0.00
2014-5-27,81.7,73.7,66.1,68.2,61.0,52.3,77,65,58,29.95,29.80,8,2,11,0.00
2014-5-28,67.1,56.3,53.6,65.2,52.5,50.2,96,87,78,30.17,29.84,7,1,8,0.01
2014-5-29,64.5,56.9,53.3,57.3,53.7,51.6,95,89,76,30.18,30.12,8,1,8,0.00
2014-5-30,73.0,60.2,46.8,58.5,52.3,45.9,98,77,50,30.21,30.14,10,1,11,0.00
2014-5-31,70.3,59.5,46.3,52.5,46.2,37.6,97,66,33,30.32,30.21,12,1,12,0.00
2014-6-1,77.8,64.4,44.2,54.8,49.1,42.7,97,62,33,30.35,30.14,9,1,10,0.00
2014-6-2,86.1,67.7,57.8,70.3,56.8,50.5,95,69,48,30.17,29.95,6,2,7,0.01
2014-6-3,80.2,74.5,62.4,71.2,64.6,54.4,93,72,52,29.98,29.79,10,3,10,0.04
2014-6-4,71.6,62.9,49.9,58.0,54.0,48.5,97,74,55,29.95,29.80,9,1,11,0.00
2014-6-5,64.9,57.5,49.0,54.1,50.6,46.6,94,78,62,29.92,29.78,10,1,13,0.00
2014-6-6,70.5,61.5,52.6,55.4,51.7,48.6,87,71,53,30.01,29.92,10,1,10,0.00
2014-6-7,77.5,66.9,46.8,56.7,53.1,45.7,97,64,44,30.11,29.98,6,0,7,0.00
2014-6-8,80.7,65.5,50.6,63.5,56.6,49.2,96,77,43,30.01,29.81,8,1,9,0.44
2014-6-9,74.3,66.1,59.9,65.9,62.2,58.5,96,87,73,29.99,29.90,7,0,10,0.01
2014-6-10,77.1,68.2,61.1,67.8,64.0,60.2,98,87,68,30.01,29.94,5,0,7,0.00
2014-6-11,78.6,69.8,63.5,70.6,66.0,62.0,97,88,74,30.01,29.89,12,2,12,0.01
2014-6-12,70.9,67.8,64.9,67.1,64.7,62.4,93,90,85,29.94,29.85,10,3,11,0.01
2014-6-13,79.9,70.0,66.8,70.1,66.1,61.1,96,88,63,29.85,29.72,10,1,10,0.07
2014-6-14,61.9,57.3,52.5,55.0,51.3,46.7,92,80,73,30.15,29.91,8,1,10,0.00
2014-6-15,71.7,61.3,49.4,59.0,54.1,48.0,97,79,57,30.25,30.14,7,0,7,0.00
2014-6-16,84.2,70.1,52.4,70.6,61.7,51.3,98,77,50,30.17,29.99,6,0,6,0.00
2014-6-17,85.9,75.2,61.8,72.8,66.2,60.1,96,75,52,30.11,29.79,8,1,11,0.49
2014-6-18,74.8,69.5,65.1,68.6,64.8,62.0,97,85,73,30.07,29.84,11,1,11,0.02
2014-6-19,73.2,68.0,62.8,65.3,58.4,44.0,97,74,39,30.15,30.05,7,1,7,0.05
2014-6-20,71.2,64.0,46.3,53.3,48.4,39.8,95,59,41,30.18,30.05,9,1,9,0.00
2014-6-21,72.0,60.6,46.0,54.9,49.9,44.5,96,71,43,30.05,29.96,9,1,10,0.00
2014-6-22,75.7,63.7,49.0,56.0,51.2,47.1,96,68,39,30.06,29.99,8,1,9,0.00
2014-6-23,81.3,68.1,51.6,67.5,59.4,50.1,97,76,57,30.08,29.98,7,1,7,0.00
2014-6-24,83.4,73.3,67.7,74.5,67.8,62.5,96,83,67,30.03,29.89,10,2,11,0.54
2014-6-25,72.4,68.7,65.8,70.8,67.7,65.1,98,97,93,29.95,29.89,5,0,5,0.84
2014-6-26,76.5,69.0,61.3,67.8,64.3,59.7,98,86,63,30.10,29.94,7,0,7,0.00
2014-6-27,80.5,69.7,56.8,66.8,60.2,55.8,98,75,45,30.22,30.10,8,1,9,0.00
2014-6-28,84.1,72.8,58.1,71.3,64.4,56.9,97,77,56,30.27,30.18,8,1,9,0.00
2014-6-29,86.7,76.2,66.6,73.4,67.2,61.6,86,74,59,30.20,30.04,8,1,9,0.00
2014-6-30,86.8,77.8,69.5,74.2,68.8,64.3,91,75,56,30.05,29.89,5,1,5,0.00
2014-7-1,88.0,78.3,69.3,75.7,70.4,67.8,97,78,55,29.89,29.72,12,2,12,0.00
2014-7-2,84.7,74.4,67.4,72.3,69.0,65.3,95,84,60,29.97,29.77,8,1,13,0.16
2014-7-3,78.1,68.8,62.0,69.4,66.0,61.1,97,91,67,30.04,29.94,5,0,5,0.24
2014-7-4,69.2,62.7,57.1,61.6,54.2,49.2,97,76,50,30.23,30.03,10,1,12,0.00
2014-7-5,75.9,66.2,55.0,58.2,52.7,47.8,85,64,43,30.26,30.14,9,1,9,0.00
2014-7-6,79.9,68.0,54.0,59.4,53.9,48.5,90,63,41,30.15,29.88,9,2,9,0.00
2014-7-7,76.6,68.7,60.5,71.6,64.6,54.5,96,87,79,29.88,29.70,11,1,11,0.29
2014-7-8,83.1,71.4,66.1,74.4,65.8,61.6,98,83,65,29.78,29.55,11,2,12,0.10
2014-7-9,75.0,67.0,60.3,66.2,61.8,57.4,97,84,63,30.06,29.72,9,1,9,0.12
2014-7-10,72.5,63.7,53.3,60.5,55.5,52.0,98,77,52,30.25,30.06,9,0,9,0.00
2014-7-11,77.3,65.8,50.8,61.4,56.1,49.7,97,74,48,30.29,30.20,8,1,8,0.00
2014-7-12,83.5,71.1,58.2,70.9,63.9,56.8,97,80,59,30.24,30.09,5,0,6,0.00
2014-7-13,76.3,71.9,63.7,72.4,68.1,62.0,97,88,76,30.07,29.82,7,2,7,0.16
2014-7-14,81.9,70.4,63.0,73.1,67.0,61.8,98,90,68,29.95,29.83,9,0,11,0.64
2014-7-15,78.5,69.3,64.2,69.8,63.8,51.8,98,84,59,29.84,29.72,9,1,10,0.15
2014-7-16,71.3,63.6,53.2,60.9,56.0,51.8,97,77,61,30.00,29.83,8,1,10,0.00
2014-7-17,70.9,62.2,53.5,59.4,54.7,49.2,96,78,48,30.19,30.00,6,1,9,0.00
2014-7-18,76.0,64.2,50.6,60.5,54.8,49.5,97,74,44,30.29,30.19,5,0,5,0.00
2014-7-19,74.5,65.3,55.6,65.9,60.1,54.3,97,85,58,30.28,30.18,5,0,6,0.03
2014-7-20,77.7,67.8,60.5,67.9,62.9,59.1,97,85,60,30.19,30.10,5,0,5,0.16
2014-7-21,81.2,72.1,62.8,72.6,66.8,61.0,96,84,67,30.20,30.13,4,0,4,0.00
2014-7-22,86.2,74.8,63.3,74.4,68.7,62.4,98,83,58,30.19,29.99,4,0,5,0.00
2014-7-23,83.8,72.2,64.5,74.3,67.7,59.9,96,86,69,30.01,29.87,9,1,9,0.04
2014-7-24,67.9,62.7,54.4,60.0,54.7,48.5,90,76,53,30.07,29.99,8,1,11,0.00
2014-7-25,75.3,63.4,50.1,62.1,55.2,48.2,95,77,51,30.11,29.98,5,1,5,0.00
2014-7-26,78.8,67.6,54.3,65.9,59.5,52.3,94,77,52,30.02,29.82,6,1,7,0.00
2014-7-27,82.0,74.1,65.5,69.5,65.2,61.6,90,75,52,29.83,29.63,8,1,11,0.00
2014-7-28,70.6,61.7,57.5,66.6,60.6,56.9,98,96,85,29.86,29.54,10,1,12,4.24
2014-7-29,66.2,59.6,53.1,58.3,55.2,51.7,98,86,65,30.02,29.86,4,0,7,0.00
2014-7-30,73.1,60.1,50.6,62.3,56.6,49.5,98,89,64,30.04,29.97,6,0,9,0.32
2014-7-31,73.5,64.0,54.8,64.3,59.1,54.0,99,86,58,30.14,30.03,6,1,6,0.04
2014-8-1,80.5,68.4,54.9,68.9,62.1,54.1,98,82,59,30.19,30.12,4,0,5,0.00
2014-8-2,81.7,69.8,60.0,69.0,63.8,58.9,97,83,55,30.18,30.08,5,0,7,0.21
2014-8-3,74.7,64.0,61.2,68.0,62.9,60.3,98,96,78,30.15,30.09,4,0,6,0.68
2014-8-4,78.9,69.2,61.8,69.2,64.5,61.2,98,87,60,30.15,30.07,4,0,5,0.01
2014-8-5,75.5,66.5,59.0,69.1,64.0,58.0,98,92,76,30.10,30.01,4,0,5,0.16
2014-8-6,73.5,66.6,56.6,65.3,58.1,51.8,98,75,53,30.03,29.98,7,1,8,0.00
2014-8-7,73.2,63.1,53.3,63.2,56.1,51.9,97,80,52,30.12,30.02,8,1,8,0.00
2014-8-8,74.3,64.0,54.2,61.9,57.0,52.7,95,80,59,30.20,30.12,6,0,6,0.00
2014-8-9,78.3,69.1,51.5,63.9,58.9,50.7,98,72,49,30.22,30.16,5,0,5,0.00
2014-8-10,81.1,67.2,52.1,65.5,58.9,51.3,98,77,49,30.21,30.11,7,1,7,0.00
2014-8-11,80.5,69.6,56.5,67.8,59.9,55.6,98,74,46,30.15,29.96,10,2,11,0.00
2014-8-12,71.3,67.8,63.5,66.3,63.8,58.4,96,88,67,29.97,29.78,14,4,15,0.15
2014-8-13,71.3,66.3,56.4,66.1,61.8,51.9,98,86,69,29.91,29.73,12,2,12,0.06
2014-8-14,66.8,59.6,53.8,54.9,52.0,48.2,92,77,57,29.94,29.87,12,2,13,0.00
2014-8-15,68.4,63.2,54.1,54.7,52.1,48.8,84,68,52,29.97,29.92,11,2,11,0.00
2014-8-16,70.0,64.4,54.5,60.0,56.6,49.0,89,76,62,29.99,29.87,12,2,12,0.00
2014-8-17,70.0,62.9,55.7,61.0,58.5,54.1,96,86,67,30.02,29.87,7,1,8,0.00
2014-8-18,69.2,61.8,51.7,58.5,56.3,50.1,98,83,62,30.02,29.91,6,0,6,0.00
2014-8-19,78.2,64.4,47.8,68.5,59.3,47.0,98,85,65,29.96,29.86,9,1,9,0.00
2014-8-20,77.0,67.1,60.3,71.1,65.0,59.2,98,94,75,29.99,29.90,5,0,5,0.19
2014-8-21,81.6,70.9,63.7,71.4,67.4,63.0,99,89,67,30.02,29.96,7,0,8,0.01
2014-8-22,79.2,69.4,60.5,70.6,66.2,59.9,98,90,71,30.04,29.98,6,0,7,0.00
2014-8-23,73.5,68.2,61.8,67.2,65.1,59.9,98,90,79,30.17,30.03,7,1,8,0.00
2014-8-24,76.0,65.7,56.5,65.9,60.3,55.7,98,84,60,30.24,30.17,8,1,8,0.00
2014-8-25,80.3,67.2,53.5,66.4,60.0,52.7,98,80,54,30.25,30.14,6,1,6,0.00
2014-8-26,82.9,70.0,56.4,70.3,63.2,55.6,98,81,56,30.19,30.05,5,1,5,0.00
2014-8-27,77.1,70.4,58.3,69.0,65.0,56.3,95,83,67,30.08,30.00,10,1,10,0.00
2014-8-28,66.2,59.3,56.5,58.0,55.2,49.5,95,87,57,30.12,30.04,4,0,12,0.00
2014-8-29,71.8,63.9,47.9,58.3,55.6,47.1,97,76,53,30.26,30.17,6,1,7,0.00
2014-8-30,82.8,70.0,56.3,70.7,62.7,53.9,92,79,58,30.19,30.01,9,2,9,0.00
2014-8-31,76.1,71.7,66.6,71.8,68.9,65.1,97,91,85,30.05,29.97,6,1,6,0.34
2014-9-1,83.0,71.8,62.7,72.2,67.9,61.5,98,88,65,30.04,29.89,4,0,7,0.00
2014-9-2,83.9,73.7,64.5,72.9,68.9,62.6,95,86,62,29.93,29.80,7,1,11,0.50
2014-9-3,76.9,68.3,60.3,65.3,61.8,58.7,98,81,55,30.14,29.93,4,0,5,0.00
2014-9-4,82.9,69.0,57.3,69.9,63.2,56.6,98,84,51,30.17,30.08,5,0,6,0.00
2014-9-5,87.0,76.3,65.6,74.0,68.6,63.5,98,79,54,30.15,29.94,9,1,11,0.00
2014-9-6,74.2,66.1,58.2,67.9,62.4,52.4,97,88,76,30.09,29.89,8,1,12,0.21
2014-9-7,69.4,60.0,51.5,57.8,53.3,49.8,96,80,56,30.28,30.09,6,0,10,0.00
2014-9-8,74.2,60.8,44.1,59.4,52.5,43.3,98,77,53,30.34,30.23,9,1,11,0.00
2014-9-9,72.1,62.0,53.4,62.8,56.8,50.8,94,83,71,30.28,30.12,7,1,10,0.00
2014-9-10,75.2,67.2,58.4,66.8,62.5,57.3,97,85,73,30.13,29.80,10,2,11,0.00
2014-9-11,72.6,66.1,55.2,69.2,61.8,51.8,94,86,79,30.14,29.69,11,3,14,0.03
2014-9-12,56.3,39.7,0.0,51.9,47.6,41.4,96,63,69,30.30,30.14,4,0,8,0.02
2014-9-13,63.6,48.0,40.1,57.3,46.0,39.2,98,93,74,30.32,30.07,10,0,18,0.19
2014-9-14,58.4,51.4,42.2,48.7,45.5,41.1,97,81,61,30.39,30.26,5,0,6,0.00
2014-9-15,67.3,56.8,48.6,56.0,50.1,46.1,96,80,55,30.27,30.07,6,1,6,0.06
2014-9-16,63.2,55.6,44.8,55.3,50.7,43.5,97,85,58,30.10,30.03,8,1,9,0.24
2014-9-17,66.0,54.5,42.4,52.2,47.6,41.3,98,80,55,30.10,29.99,5,0,5,0.00
2014-9-18,63.4,52.6,41.8,56.5,49.5,40.8,98,89,77,30.26,30.02,5,0,8,0.00
2014-9-19,60.3,48.6,34.1,51.4,42.4,33.3,97,81,56,30.39,30.18,9,1,10,0.00
2014-9-20,75.3,65.9,55.8,63.8,59.5,51.7,89,80,63,30.19,29.92,9,3,14,0.00
2014-9-21,67.9,65.4,64.1,63.2,60.2,58.9,90,83,80,29.93,29.71,7,3,11,0.00
2014-9-23,68.5,60.3,49.3,55.0,52.2,47.7,96,76,57,30.45,30.34,5,0,6,0.00
2014-9-24,72.2,59.3,44.7,56.7,52.0,43.9,98,79,54,30.57,30.44,8,1,10,0.00
2014-9-25,69.2,58.5,49.2,56.6,52.9,47.8,97,83,60,30.48,30.33,8,1,9,0.00
2014-9-26,71.9,57.3,43.6,58.9,52.0,42.8,99,84,60,30.37,30.28,4,0,5,0.00
2014-9-27,75.0,60.6,46.4,60.9,54.4,45.6,99,82,53,30.34,30.25,4,0,7,0.00
2014-9-28,78.0,59.3,48.9,63.6,55.2,48.1,99,88,56,30.25,30.07,4,0,8,0.00
2014-9-29,76.2,64.0,52.7,62.1,57.5,51.8,98,82,54,30.08,29.92,4,0,5,0.00
2014-9-30,74.7,61.4,50.2,63.2,57.1,49.2,98,87,60,30.01,29.89,7,0,8,0.41
2014-10-1,68.1,61.2,56.7,62.3,59.2,55.9,98,94,78,30.13,30.01,3,0,4,0.01
2014-10-2,69.3,60.8,53.4,62.1,57.6,52.8,98,90,71,30.17,30.08,6,1,8,0.00
2014-10-3,68.9,62.5,54.2,60.8,57.5,52.8,96,84,73,30.08,29.63,14,4,18,0.00
2014-10-4,63.7,54.8,40.6,60.1,49.2,34.1,97,82,49,29.73,29.54,11,2,12,0.31
2014-10-5,53.4,44.0,38.0,44.0,36.9,32.8,84,76,62,29.93,29.72,10,2,12,0.00
2014-10-6,65.4,54.3,39.9,53.2,44.4,35.1,86,70,54,29.92,29.81,14,3,15,0.00
2014-10-7,66.6,60.6,55.9,54.4,50.9,45.0,91,72,48,29.92,29.72,14,3,14,0.00
2014-10-8,60.4,55.6,50.0,54.5,46.7,36.4,87,73,51,29.94,29.67,13,4,18,0.00
2014-10-9,60.2,51.1,42.1,43.4,39.6,34.5,89,67,39,30.09,29.92,13,2,13,0.00
2014-10-10,57.4,47.7,38.0,43.7,40.5,35.3,94,77,54,30.16,30.09,7,1,9,0.00
2014-10-11,54.3,45.4,35.9,45.7,40.6,34.2,97,84,59,30.25,30.10,7,1,8,0.00
2014-10-12,57.4,43.8,30.4,43.7,36.7,29.3,98,78,48,30.33,30.20,7,1,8,0.00
2014-10-13,67.0,57.4,44.1,58.3,51.9,38.9,90,82,72,30.20,30.09,9,2,10,0.00
2014-10-14,78.0,69.6,60.7,64.9,62.0,57.3,89,78,60,30.09,29.90,18,5,18,0.00
2014-10-15,71.7,66.2,61.1,65.7,63.4,60.0,97,91,78,29.92,29.80,12,2,12,0.84
2014-10-16,68.1,61.5,56.2,62.5,57.2,51.0,98,87,63,29.80,29.63,7,1,8,0.03
2014-10-17,65.5,58.4,51.1,55.4,52.0,49.2,95,80,60,29.68,29.56,15,3,16,0.00
2014-10-18,56.7,51.3,42.3,54.0,48.1,40.9,95,89,79,29.90,29.54,12,2,16,0.04
2014-10-19,44.2,39.8,33.2,41.0,34.2,30.6,95,81,64,30.10,29.89,14,2,14,0.02
2014-10-20,54.8,45.6,33.2,46.7,40.3,31.1,94,82,64,30.05,29.86,8,1,8,0.05
2014-10-21,54.1,50.1,47.7,51.8,48.7,46.3,97,95,91,29.97,29.82,3,0,4,0.37
2014-10-22,48.1,46.4,45.5,46.1,44.9,43.7,98,94,88,30.21,30.06,10,2,10,0.04
2014-10-23,55.2,49.8,45.2,49.1,45.0,42.2,92,84,66,30.13,29.99,13,2,16,0.00
2014-10-24,58.6,51.4,46.5,48.8,42.8,33.5,95,74,49,30.01,29.93,11,2,13,0.00
2014-10-25,67.7,55.2,45.1,53.1,47.5,42.2,95,77,48,29.94,29.60,14,3,14,0.00
2014-10-26,50.4,48.9,44.8,46.1,41.3,39.1,89,75,70,29.92,29.63,14,3,17,0.00
2014-10-27,59.0,48.5,38.9,44.7,40.6,36.3,93,75,52,30.07,29.90,6,1,9,0.00
2014-10-28,78.7,66.2,54.8,60.8,54.1,39.4,96,67,43,29.91,29.76,15,4,17,0.38
2014-10-29,59.0,51.2,45.9,57.6,45.9,41.3,95,82,71,29.99,29.86,14,2,14,0.00
2014-10-30,46.6,43.2,36.3,41.6,37.9,34.5,94,82,70,30.09,29.99,8,1,9,0.00
2014-10-31,50.1,42.6,35.7,41.1,38.7,34.4,96,87,64,30.05,29.92,5,0,5,0.03
2014-11-1,41.2,38.7,35.6,39.8,37.3,34.0,96,95,93,30.10,29.98,12,2,12,0.25
2014-11-2,40.7,36.9,33.8,35.1,30.1,24.7,97,77,54,30.21,30.10,14,3,16,0.06
2014-11-3,56.7,49.4,39.5,35.6,27.2,17.2,70,44,22,30.19,30.07,13,3,13,0.00
2014-11-4,68.3,59.0,48.8,49.3,33.8,22.3,56,40,19,30.11,29.90,17,4,17,0.00
2014-11-5,57.6,49.5,38.9,50.8,37.8,34.0,94,66,43,30.16,29.93,15,3,17,0.00
2014-11-6,43.7,40.7,35.7,42.5,39.1,33.5,97,94,88,30.12,29.73,6,0,7,0.52
2014-11-7,41.2,36.8,32.3,40.4,34.9,28.4,97,93,80,30.00,29.73,13,2,14,0.44
2014-11-8,46.4,38.2,29.9,38.6,31.7,27.3,94,78,62,30.00,29.74,10,2,11,0.00
2014-11-9,45.2,41.5,38.0,38.5,35.1,32.0,91,78,69,29.96,29.80,8,2,9,0.00
2014-11-10,56.9,49.1,42.7,41.0,37.6,33.7,81,65,52,30.09,29.94,13,2,14,0.00
2014-11-11,64.5,55.5,44.1,45.6,41.8,37.4,80,61,46,29.96,29.78,13,4,13,0.00
2014-11-12,57.9,44.3,34.5,49.6,35.9,25.3,85,72,61,30.16,29.76,15,3,16,0.00
2014-11-13,34.5,32.6,28.4,30.6,27.5,23.5,93,82,68,30.14,30.04,5,1,6,0.00
2014-11-14,35.5,30.2,25.5,27.4,24.2,20.3,88,78,67,30.22,30.04,11,2,12,0.00
2014-11-15,37.6,31.6,24.5,28.2,24.0,20.5,87,74,52,30.34,30.21,8,1,9,0.00
2014-11-16,39.9,34.2,28.1,31.4,26.2,22.1,83,73,54,30.28,29.97,10,2,10,0.00
2014-11-17,36.4,33.8,27.9,35.4,31.3,19.0,96,91,63,29.98,29.49,16,1,17,0.34
2014-11-18,27.8,21.7,18.5,20.8,12.7,8.7,84,68,59,29.89,29.65,19,8,20,0.00
2014-11-19,28.1,23.4,16.2,22.6,14.2,8.3,86,68,55,30.15,29.78,15,6,15,0.00
2014-11-20,29.5,25.5,21.6,25.8,21.2,13.3,93,84,63,30.00,29.77,12,2,12,0.00
2014-11-21,29.5,23.8,19.5,20.1,16.5,11.7,88,74,60,30.44,30.00,10,3,12,0.00
2014-11-22,45.3,35.8,22.5,42.2,25.6,8.1,91,68,30,30.40,30.01,16,5,16,0.00
2014-11-23,53.4,49.1,44.9,45.0,41.1,35.6,90,74,56,30.09,29.72,15,3,15,0.00
2014-11-24,67.2,57.7,45.3,55.8,50.0,36.5,95,76,58,29.72,29.33,20,7,22,0.08
2014-11-25,50.5,42.5,33.7,36.8,30.3,26.5,87,63,48,30.22,29.70,19,6,22,0.00
2014-11-26,34.3,32.2,29.2,30.0,27.9,25.1,95,85,70,30.25,30.02,6,0,7,0.00
2014-11-27,33.3,29.6,27.3,28.5,26.5,24.6,95,88,74,30.10,30.01,8,1,9,0.00
2014-11-28,29.1,24.8,22.3,25.4,18.8,14.2,91,78,62,30.25,30.09,12,2,12,0.00
2014-11-29,37.4,29.4,22.5,30.4,23.5,17.9,83,79,76,30.24,29.91,16,3,18,0.00
2014-11-30,54.9,45.3,36.8,49.2,39.0,30.0,88,78,71,29.94,29.85,14,3,18,0.05
2014-12-1,52.4,34.4,26.4,50.2,28.4,18.2,96,79,66,30.62,29.90,12,2,13,0.10
2014-12-2,39.1,29.5,22.7,35.9,23.9,16.9,92,80,57,30.64,30.09,16,3,16,0.08
2014-12-3,42.3,38.3,33.4,39.0,34.4,27.8,94,86,74,30.19,29.94,16,4,20,0.00
2014-12-4,35.1,28.4,20.2,28.8,21.7,18.5,94,76,58,30.51,30.19,8,1,12,0.00
2014-12-5,37.6,30.6,19.2,34.2,26.8,17.5,95,86,70,30.51,30.23,12,2,14,0.05
2014-12-6,38.2,35.8,33.5,37.3,34.4,28.0,97,95,80,30.48,30.17,9,1,11,0.66
2014-12-7,33.4,26.9,18.9,28.5,22.2,15.9,90,82,70,30.73,30.48,7,1,9,0.00
2014-12-8,33.1,26.6,19.1,27.3,18.5,14.3,90,73,47,30.64,30.34,13,3,15,0.00
2014-12-9,41.1,36.7,33.3,35.9,33.7,31.2,96,89,81,30.17,30.01,7,2,10,0.02
2014-12-10,33.9,29.4,26.8,32.9,28.2,25.4,96,95,94,30.02,29.72,15,3,16,0.01
2014-12-11,27.0,25.2,23.9,25.5,22.6,21.0,95,90,83,29.92,29.70,9,2,10,0.00
2014-12-12,31.6,28.2,24.1,29.5,25.1,21.6,95,88,80,30.09,29.90,12,2,12,0.00
2014-12-13,35.1,34.0,30.7,33.9,32.1,27.4,96,93,87,30.08,29.94,10,2,11,0.07
2014-12-14,38.1,36.3,34.0,35.9,34.8,31.4,97,94,90,30.07,29.92,7,1,8,0.10
2014-12-15,37.9,36.2,35.3,35.9,34.9,34.0,97,95,92,30.12,30.00,6,1,6,0.00
2014-12-16,42.9,39.4,34.7,40.8,37.7,33.5,96,94,89,30.00,29.77,10,2,11,0.16
2014-12-17,44.1,38.2,31.2,40.8,34.8,28.4,96,88,82,29.96,29.80,15,4,18,0.00
2014-12-18,32.1,30.9,28.4,29.6,28.1,26.0,95,89,82,30.07,29.96,11,3,15,0.00
2014-12-19,28.6,26.5,23.8,27.2,23.8,21.3,95,89,86,30.26,30.04,14,2,14,0.00
2014-12-20,29.7,28.3,27.0,25.5,24.0,23.0,90,84,79,30.31,30.22,5,0,6,0.00
2014-12-21,33.3,29.8,27.3,26.5,24.9,23.4,90,82,73,30.34,30.27,5,0,7,0.00
2014-12-22,37.2,29.3,25.0,32.5,24.8,22.0,89,83,73,30.31,30.10,11,3,12,0.00
2014-12-23,48.4,45.4,34.3,45.8,43.3,32.5,96,92,90,30.09,29.92,11,2,11,0.07
2014-12-24,55.7,50.5,47.8,52.9,48.2,45.6,94,92,88,29.93,29.28,18,4,18,0.05
2014-12-25,55.5,42.3,38.7,53.3,35.8,32.0,94,78,64,30.14,29.33,27,7,27,0.00
2014-12-26,46.1,39.3,35.7,33.5,31.2,29.1,84,73,56,30.25,30.12,12,3,12,0.00
2014-12-27,54.2,46.6,36.1,43.3,39.0,31.7,85,75,63,30.21,29.89,9,2,13,0.00
2014-12-28,50.4,38.4,31.5,44.0,33.5,25.1,93,82,73,30.13,29.84,11,2,15,0.02
2014-12-29,32.7,28.5,24.7,25.9,23.2,19.4,88,80,67,30.30,30.12,8,1,8,0.00
2014-12-30,25.7,22.3,19.3,22.3,18.9,11.4,91,87,70,30.45,30.30,8,1,11,0.00
2014-12-31,24.0,19.9,16.4,13.9,10.1,7.2,78,66,55,30.33,30.00,15,5,15,0.00
2015-1-1,33.3,27.3,21.6,25.0,14.7,10.3,80,59,43,30.00,29.81,19,6,20,0.00
2015-1-2,31.4,29.2,23.2,26.1,22.1,18.7,86,75,62,30.44,29.95,13,2,15,0.00